• Join FlightAware (Why Join?)
  • Login
  • US Flag 
01:57AM EST


 

Airport Tracker/Info


-or-


 

Live Flight TrackerFlight Track Log ✈ N27XP ✈ 21-Aug-2013 ✈ KSOP - KBED

Flight Track Log - Related Links

Times and Time Zones

All times are in EDT time to prevent confusion due to time zone crossing. See the N27XP flight status page for this flight to view local times or setup timezone preferences in your user account.

Time Position Orientation Groundspeed Altitude Reporting Facility
EDT Latitude Longitude Course Direction KTS MPH feet Rate Location/Type
10:59AM 35.3103 -79.5475 28° Northeast 287 330 8,400  Level Washington Center
11:00AM 35.4222 -79.5094 15° North 325 374 9,000 716 Climbing Washington Center
11:01AM 35.5044 -79.4778 17° North 351 404 10,000 522 Climbing Washington Center
11:02AM 35.6192 -79.4067 73° East  Level FlightAware Approximate
11:02AM 35.5975 -79.4417 18° North 356 410 10,000  Level Washington Center
11:03AM 35.6596 -79.2909 61° Northeast  Level FlightAware Approximate
11:03AM 35.6522 -79.3625 50° Northeast 324 373 10,000  Level Washington Center
11:04AM 35.7166 -79.1890 28° Northeast  Level FlightAware Approximate
11:04AM 35.6892 -79.2439 69° East 324 373 11,400  Level Washington Center
11:05AM 35.7522 -79.1675 45° Northeast 336 387 12,900 1,576 Climbing Washington Center
11:06AM 35.8458 -79.1000 30° Northeast 336 387 14,500 1,438 Climbing Washington Center
11:07AM 35.9247 -79.0444 30° Northeast 348 400 15,800 1,279 Climbing Washington Center
11:08AM 36.0164 -78.9767 31° Northeast 369 425 17,100 1,140 Climbing Washington Center
11:09AM 36.1081 -78.9086 31° Northeast 375 432 18,100 1,220 Climbing Washington Center
11:10AM 36.2017 -78.8406 30° Northeast 380 437 19,500 1,271 Climbing Washington Center
11:11AM 36.2933 -78.7719 31° Northeast 380 437 20,600 1,091 Climbing Washington Center
11:12AM 36.3892 -78.7011 31° Northeast 385 443 21,700 1,180 Climbing Washington Center
11:13AM 36.4747 -78.6142 39° Northeast 390 449 23,000 1,289 Climbing Washington Center
11:14AM 36.5544 -78.5164 45° Northeast 395 455 24,300 1,261 Climbing Washington Center
11:15AM 36.6381 -78.4186 43° Northeast 395 455 25,500 1,033 Climbing Washington Center
11:17AM 36.8053 -78.2172 44° Northeast 407 468 27,400 961 Climbing Washington Center
11:18AM 36.8911 -78.1161 43° Northeast 412 474 28,400 1,068 Climbing Washington Center
11:19AM 36.9744 -78.0097 46° Northeast 412 474 29,500 1,059 Climbing Washington Center
11:20AM 37.0622 -77.9083 43° Northeast 412 474 30,500 942 Climbing Washington Center
11:21AM 37.1453 -77.8092 44° Northeast 412 474 31,400 893 Climbing Washington Center
11:22AM 37.2328 -77.7047 44° Northeast 412 474 32,300 857 Climbing Washington Center
11:23AM 37.3200 -77.5975 44° Northeast 412 474 33,100 763 Climbing Washington Center
11:24AM 37.4072 -77.4925 44° Northeast 417 480 33,800 750 Climbing Washington Center
11:25AM 37.4944 -77.3847 44° Northeast 423 487 34,600 750 Climbing Washington Center
11:26AM 37.5858 -77.2822 42° Northeast 428 493 35,300 694 Climbing Washington Center
11:27AM 37.6728 -77.1711 45° Northeast 428 493 36,000 645 Climbing Washington Center
11:28AM 37.7597 -77.0628 45° Northeast 433 498 36,600 500 Climbing Washington Center
11:29AM 37.8464 -76.9514 45° Northeast 433 498 37,000 202 Climbing Washington Center
11:30AM 37.9372 -76.8397 44° Northeast 433 498 37,000  Level Washington Center
11:31AM 38.0303 -76.7228 45° Northeast 444 511 37,000  Level Washington Center
11:32AM 38.1250 -76.6053 44° Northeast 457 526 37,000  Level Washington Center
11:33AM 38.2219 -76.4850 44° Northeast 467 537 37,000  Level Washington Center
11:34AM 38.3272 -76.3644 42° Northeast 467 537 37,000  Level Washington Center
11:35AM 38.4297 -76.2675 37° Northeast 462 532 37,000  Level Washington Center
11:36AM 38.5347 -76.1678 37° Northeast 462 532 37,000  Level Washington Center
11:37AM 38.6456 -76.0728 34° Northeast 470 541 37,000  Level Washington Center
11:38AM 38.7500 -75.9750 36° Northeast 470 541 37,000  Level Washington Center
11:39AM 38.8547 -75.8742 37° Northeast 470 541 37,000  Level Washington Center
11:40AM 38.9611 -75.7758 36° Northeast 470 541 37,000  Level Washington Center
11:41AM 39.0656 -75.6744 37° Northeast 470 541 37,000 -50 Level Washington Center
11:42AM 39.1717 -75.5783 35° Northeast 470 541 36,900 -298 Descending Washington Center
11:43AM 39.2758 -75.4789 36° Northeast 470 541 36,400 -639 Descending Washington Center
11:44AM 39.3842 -75.3822 35° Northeast 470 541 35,600 -908 Descending Washington Center
11:45AM 39.4903 -75.2850 35° Northeast 470 541 34,600 -1,008 Descending Washington Center
11:46AM 39.5961 -75.1903 35° Northeast 470 541 33,600 -511 Descending Washington Center
11:48AM 39.8214 -74.9872 35° Northeast 472 543 33,000 -193 Descending New York Center
11:49AM 39.9250 -74.8881 36° Northeast 459 528 33,000  Level New York Center
11:50AM 40.0147 -74.7631 47° Northeast 459 528 33,000  Level New York Center
11:51AM 40.0836 -74.6369 54° Northeast 473 544 33,000  Level New York Center
11:52AM 40.1697 -74.4869 53° Northeast 468 539 33,000 -350 Level New York Center
11:53AM 40.2428 -74.3467 56° Northeast 474 545 32,300 -850 Descending New York Center
11:54AM 40.3156 -74.2089 55° Northeast 469 540 31,300 -1,050 Descending New York Center
11:55AM 40.3906 -74.0683 55° Northeast 469 540 30,200 -1,212 Descending New York Center
11:57AM 40.5567 -73.7594 55° Northeast 453 521 27,300 -1,333 Descending Boston Center
11:58AM 40.6250 -73.6242 56° Northeast 467 537 25,800 -1,488 Descending Boston Center
11:59AM 40.6992 -73.4803 56° Northeast 472 543 24,300 -1,377 Descending Boston Center
12:00PM 40.7692 -73.3417 56° Northeast 472 543 23,000 -655 Descending Boston Center
12:01PM 40.8639 -73.2222 44° Northeast 446 513 23,000 -454 Level Boston Center
12:02PM 40.9561 -73.1133 42° Northeast 434 499 22,100 -1,091 Descending Boston Center
12:03PM 41.0528 -73.0069 40° Northeast 441 507 20,800 -1,300 Descending Boston Center
12:04PM 41.1450 -72.8950 42° Northeast 441 507 19,500 -1,438 Descending Boston Center
12:05PM 41.2350 -72.7878 42° Northeast 435 501 17,900 -1,339 Descending Boston Center
12:06PM 41.3247 -72.6944 38° Northeast 423 487 16,800 -1,128 Descending Boston Center
12:07PM 41.4206 -72.6506 19° North 395 455 15,700 -915 Descending Boston Center
12:08PM 41.5375 -72.5981 19° North 395 455 15,000 -541 Descending Boston Center
12:09PM 41.6231 -72.5344 29° Northeast 390 449 14,600 -750 Descending Boston Center
12:10PM 41.7189 -72.4344 38° Northeast 387 445 13,500 -942 Descending Boston Center
12:11PM 41.7981 -72.3539 37° Northeast 392 451 12,700 -934 Descending Boston Center
12:12PM 41.8958 -72.2533 37° Northeast 387 445 11,600 -939 Descending Boston Center
12:13PM 41.9708 -72.1692 40° Northeast 383 441 10,900 -1,109 Descending Boston Center
12:14PM 42.0478 -72.0878 38° Northeast 362 417 9,400 -1,548 Descending Boston Center
12:15PM 42.1142 -72.0203 37° Northeast 294 338 7,700 -1,613 Descending Boston Center
12:16PM 42.1742 -71.9528 40° Northeast 291 335 6,200 -1,350 Descending Boston Center
12:17PM 42.2364 -71.8847 39° Northeast 274 315 5,000 -346 Descending Boston Center
12:20PM 42.3833 -71.7167 40° Northeast 265 305 5,000 -56 Level KA90
12:21PM 42.4333 -71.6333 51° Northeast 268 308 4,800 -619 Descending KA90
12:22PM 42.4833 -71.5667 45° Northeast 254 292 3,700 -900 Descending KA90
12:23PM 42.5000 -71.4833 75° East 237 273 3,000 -905 Descending KA90
12:24PM 42.5000 -71.3833 90° East 263 303 1,800 -750 Descending KA90
12:25PM 42.5000 -71.3000 90° East 222 255 1,500 -421 Descending KA90
12:26PM 42.4833 -71.2500 114° Southeast 155 178 1,000 -524 Descending KA90
12:27PM 42.4667 -71.2667 216° Southwest 123 142 400 -545 Descending KA90
12:29PM 42.4667 -71.2833 236° Southwest  Level FlightAware Approximate
12:36PM 42.4699 -71.2890 236° Southwest  Level Estimated
12:37PM 42.4667 -71.2833 236° Southwest  Level FlightAware Approximate
12:38PM 42.4699 -71.2890 236° Southwest  Level Estimated
12:39PM 42.4667 -71.2833 236° Southwest  Level FlightAware Approximate
12:40PM 42.4699 -71.2890 236° Southwest  Level Estimated
12:41PM 42.4667 -71.2833 236° Southwest  Level FlightAware Approximate
12:42PM 42.4699 -71.2890 236° Southwest  Level Estimated